When you browse on this site, cookies collect data to enhance your experience and personalize the content and advertising you see.
Visit our Privacy Policy to learn more. By continuing to use the site, you agree to this use of cookies and data.
  • en Suisse
  • Liste des pays
  • À 7 jours
  • Température de l'eau
  • Carte satellitaire
  • Carte météo
  • Widgets météo
  • user-avatar
    Se connecter

    Météo par heure à Oberursel

    Ce jour, 27 Mai, Lundi

    Heure Température Précipitation Vent Pression Humidité
    00:00 +16°C° 0 mm 2 m/s 741 mmHg 80%
    01:00 +15°C° 0 mm 2 m/s 741 mmHg 83%
    02:00 +14°C° 0 mm 2 m/s 740 mmHg 84%
    03:00 +14°C° 0 mm 2 m/s 740 mmHg 86%
    04:00 +13°C° 0 mm 2 m/s 740 mmHg 87%
    05:00 +14°C° 0 mm 2 m/s 740 mmHg 85%
    06:00 +14°C° 0 mm 2 m/s 740 mmHg 82%
    07:00 +14°C° 0 mm 3 m/s 740 mmHg 80%
    08:00 +15°C° 0.2 mm 2 m/s 740 mmHg 81%
    09:00 +15°C° 0.2 mm 2 m/s 740 mmHg 82%
    10:00 +15°C° 0.2 mm 2 m/s 740 mmHg 83%
    11:00 +15°C° 0.2 mm 2 m/s 740 mmHg 84%
    12:00 +16°C° 0.2 mm 2 m/s 739 mmHg 85%
    13:00 +16°C° 0.2 mm 2 m/s 739 mmHg 85%
    14:00 +16°C° 0 mm 2 m/s 739 mmHg 84%
    15:00 +16°C° 0 mm 2 m/s 738 mmHg 82%
    16:00 +18°C° 0 mm 1 m/s 738 mmHg 80%
    17:00 +18°C° 0.2 mm 1 m/s 738 mmHg 81%
    18:00 +18°C° 0.2 mm 1 m/s 738 mmHg 81%
    19:00 +18°C° 0.2 mm 1 m/s 738 mmHg 82%
    20:00 +16°C° 0.1 mm 1 m/s 738 mmHg 84%
    21:00 +15°C° 0.1 mm 1 m/s 738 mmHg 85%
    22:00 +14°C° 0.1 mm 1 m/s 738 mmHg 87%
    23:00 +14°C° 0 mm 1 m/s 738 mmHg 88%

    Demain, 28 Mai, Mardi

    Heure Température Précipitation Vent Pression Humidité
    00:00 +13°C° 0 mm 1 m/s 738 mmHg 88%
    01:00 +13°C° 0 mm 1 m/s 738 mmHg 88%
    02:00 +13°C° 0 mm 1 m/s 738 mmHg 88%
    03:00 +13°C° 0 mm 1 m/s 738 mmHg 88%
    04:00 +12°C° 0 mm 1 m/s 738 mmHg 87%
    05:00 +13°C° 0.1 mm 1 m/s 738 mmHg 85%
    06:00 +13°C° 0.1 mm 1 m/s 738 mmHg 83%
    07:00 +14°C° 0.1 mm 1 m/s 737 mmHg 81%
    08:00 +15°C° 0.3 mm 1 m/s 738 mmHg 78%
    09:00 +16°C° 0.3 mm 2 m/s 738 mmHg 74%
    10:00 +16°C° 0.3 mm 2 m/s 738 mmHg 70%
    11:00 +17°C° 0.3 mm 2 m/s 738 mmHg 67%
    12:00 +17°C° 0.3 mm 2 m/s 738 mmHg 64%
    13:00 +18°C° 0.3 mm 2 m/s 738 mmHg 60%
    14:00 +18°C° 0.5 mm 3 m/s 738 mmHg 62%
    15:00 +17°C° 0.5 mm 3 m/s 738 mmHg 64%
    16:00 +17°C° 0.5 mm 3 m/s 738 mmHg 66%
    17:00 +17°C° 0.9 mm 3 m/s 738 mmHg 70%
    18:00 +16°C° 0.9 mm 2 m/s 739 mmHg 74%
    19:00 +15°C° 0.9 mm 2 m/s 739 mmHg 77%
    20:00 +14°C° 0.7 mm 2 m/s 740 mmHg 80%
    21:00 +13°C° 0.7 mm 2 m/s 741 mmHg 83%
    22:00 +11°C° 0.7 mm 3 m/s 741 mmHg 86%
    23:00 +11°C° 0 mm 3 m/s 742 mmHg 87%

    Après-demain, 29 Mai, Mercredi

    Heure Température Précipitation Vent Pression Humidité
    00:00 +10°C° 0 mm 2 m/s 742 mmHg 88%
    01:00 +9°C° 0 mm 2 m/s 742 mmHg 89%
    02:00 +9°C° 0 mm 2 m/s 743 mmHg 89%
    03:00 +8°C° 0 mm 2 m/s 743 mmHg 88%
    04:00 +7°C° 0 mm 2 m/s 744 mmHg 88%
    05:00 +8°C° 0 mm 2 m/s 744 mmHg 85%
    06:00 +8°C° 0 mm 2 m/s 744 mmHg 83%
    07:00 +9°C° 0 mm 2 m/s 745 mmHg 81%
    08:00 +12°C° 0 mm 1 m/s 745 mmHg 75%
    09:00 +15°C° 0 mm 1 m/s 745 mmHg 68%
    10:00 +18°C° 0 mm 1 m/s 746 mmHg 62%
    11:00 +19°C° 0 mm 1 m/s 746 mmHg 57%
    12:00 +21°C° 0 mm 1 m/s 746 mmHg 51%
    13:00 +20°C° 0 mm 0 m/s 746 mmHg 46%
    14:00 +22°C° 0 mm 1 m/s 745 mmHg 44%
    15:00 +22°C° 0 mm 1 m/s 745 mmHg 42%
    16:00 +22°C° 0 mm 1 m/s 745 mmHg 41%
    17:00 +20°C° 0.1 mm 2 m/s 745 mmHg 50%
    18:00 +18°C° 0.1 mm 2 m/s 745 mmHg 58%
    19:00 +17°C° 0.1 mm 3 m/s 745 mmHg 67%
    20:00 +16°C° 0 mm 3 m/s 745 mmHg 71%
    21:00 +15°C° 0 mm 2 m/s 745 mmHg 74%
    22:00 +14°C° 0 mm 2 m/s 746 mmHg 78%
    23:00 +13°C° 0 mm 3 m/s 746 mmHg 80%

    30 Mai, Jeudi

    Heure Température Précipitation Vent Pression Humidité
    00:00 +13°C° 0 mm 3 m/s 746 mmHg 81%
    01:00 +12°C° 0 mm 3 m/s 745 mmHg 83%
    02:00 +12°C° 0.5 mm 3 m/s 745 mmHg 85%
    03:00 +12°C° 0.5 mm 3 m/s 745 mmHg 87%
    04:00 +12°C° 0.5 mm 4 m/s 745 mmHg 89%
    05:00 +13°C° 0.2 mm 3 m/s 745 mmHg 90%
    06:00 +13°C° 0.2 mm 3 m/s 745 mmHg 90%
    07:00 +13°C° 0.2 mm 3 m/s 745 mmHg 90%
    08:00 +14°C° 0.2 mm 3 m/s 746 mmHg 89%
    09:00 +14°C° 0.2 mm 3 m/s 746 mmHg 87%
    10:00 +16°C° 0.2 mm 2 m/s 746 mmHg 86%
    11:00 +17°C° 0.3 mm 3 m/s 747 mmHg 81%
    12:00 +18°C° 0.3 mm 3 m/s 747 mmHg 77%
    13:00 +20°C° 0.3 mm 3 m/s 747 mmHg 72%
    14:00 +19°C° 0.3 mm 4 m/s 747 mmHg 74%
    15:00 +19°C° 0.3 mm 4 m/s 747 mmHg 77%
    16:00 +18°C° 0.3 mm 4 m/s 747 mmHg 79%
    17:00 +18°C° 0.2 mm 3 m/s 747 mmHg 80%
    18:00 +18°C° 0.2 mm 3 m/s 747 mmHg 81%
    19:00 +18°C° 0.2 mm 3 m/s 747 mmHg 81%
    20:00 +17°C° 0.1 mm 3 m/s 747 mmHg 84%
    21:00 +17°C° 0.1 mm 3 m/s 748 mmHg 86%
    22:00 +16°C° 0.1 mm 3 m/s 748 mmHg 88%
    23:00 +16°C° 0.6 mm 3 m/s 748 mmHg 89%

    31 Mai, Vendredi

    Heure Température Précipitation Vent Pression Humidité
    00:00 +14°C° 0.6 mm 3 m/s 747 mmHg 90%
    01:00 +14°C° 0.6 mm 3 m/s 747 mmHg 91%
    02:00 +14°C° 0.3 mm 3 m/s 747 mmHg 91%
    03:00 +14°C° 0.3 mm 3 m/s 747 mmHg 91%
    04:00 +14°C° 0.3 mm 3 m/s 747 mmHg 92%
    05:00 +14°C° 0.6 mm 3 m/s 747 mmHg 92%
    06:00 +14°C° 0.6 mm 3 m/s 747 mmHg 91%
    07:00 +14°C° 0.6 mm 3 m/s 747 mmHg 91%
    08:00 +14°C° 0.2 mm 3 m/s 747 mmHg 89%
    09:00 +16°C° 0.2 mm 3 m/s 747 mmHg 87%
    10:00 +16°C° 0.2 mm 3 m/s 748 mmHg 85%
    11:00 +18°C° 0.1 mm 4 m/s 748 mmHg 76%
    12:00 +19°C° 0.1 mm 5 m/s 748 mmHg 68%
    13:00 +20°C° 0.1 mm 5 m/s 749 mmHg 59%
    14:00 +20°C° 0 mm 5 m/s 749 mmHg 58%
    15:00 +19°C° 0 mm 5 m/s 749 mmHg 57%
    16:00 +19°C° 0 mm 5 m/s 750 mmHg 56%
    17:00 +17°C° 0 mm 5 m/s 750 mmHg 59%
    18:00 +17°C° 0 mm 4 m/s 750 mmHg 63%
    19:00 +16°C° 0 mm 3 m/s 751 mmHg 66%
    20:00 +13°C° 0 mm 3 m/s 751 mmHg 70%
    21:00 +12°C° 0 mm 3 m/s 752 mmHg 74%
    22:00 +10°C° 0 mm 2 m/s 753 mmHg 78%
    23:00 +9°C° 0 mm 2 m/s 753 mmHg 80%

    1 Juin, Samedi

    Heure Température Précipitation Vent Pression Humidité
    00:00 +9°C° 0 mm 2 m/s 753 mmHg 82%
    01:00 +9°C° 0 mm 1 m/s 753 mmHg 84%
    02:00 +8°C° 0 mm 1 m/s 753 mmHg 85%
    03:00 +8°C° 0 mm 1 m/s 754 mmHg 85%
    04:00 +7°C° 0 mm 1 m/s 754 mmHg 86%
    05:00 +9°C° 0 mm 1 m/s 754 mmHg 81%
    06:00 +10°C° 0 mm 1 m/s 754 mmHg 76%
    07:00 +11°C° 0 mm 1 m/s 754 mmHg 71%
    08:00 +13°C° 0 mm 1 m/s 754 mmHg 63%
    09:00 +15°C° 0 mm 1 m/s 754 mmHg 55%
    10:00 +16°C° 0 mm 0 m/s 754 mmHg 48%
    11:00 +17°C° 0 mm 0 m/s 754 mmHg 44%
    12:00 +21°C° 0 mm 1 m/s 753 mmHg 40%
    13:00 +22°C° 0 mm 1 m/s 753 mmHg 36%
    14:00 +22°C° 0 mm 1 m/s 753 mmHg 36%
    15:00 +22°C° 0 mm 1 m/s 752 mmHg 35%
    16:00 +22°C° 0 mm 1 m/s 752 mmHg 35%
    17:00 +21°C° 0 mm 1 m/s 752 mmHg 40%
    18:00 +20°C° 0 mm 1 m/s 752 mmHg 45%
    19:00 +20°C° 0 mm 1 m/s 752 mmHg 49%
    20:00 +18°C° 0 mm 1 m/s 752 mmHg 52%
    21:00 +16°C° 0 mm 1 m/s 752 mmHg 54%
    22:00 +14°C° 0 mm 1 m/s 752 mmHg 57%
    23:00 +13°C° 0 mm 1 m/s 752 mmHg 59%
    Voir plus